Current Weather Conditions: station 44139

sailwx.info

Wind from 220 at 11 knots gusting 13

Wave height 1.4 meters (4 feet), 10 second period

Air temperature 3.6° C
Water temperature 3.8° C

Last reported at 2017-Feb-24 01:00 UTC.
Time now 2017-Feb-24 02:21 UTC

Location: N 44°12' W 057°06'.
View on Google Maps.

See reports from other nearby stations

  
Tides and Currents Weather Stations Pressure Air Temp Water Temp Dewpoint Dewpoint Depression Visibility Wind Speed Wind Dir Waves Ship Positions
date/time (UTC)wind fromknots sea level pressurealtimeterstation pressurevisibilityair tempwater tempwave heightnotes
2017-Feb-24 01:00 220 11 gusting 13 3.6 3.8 1.4
2017-Feb-24 00:00 240 9 gusting 11 3.4 3.8 1.5
2017-Feb-23 23:00 250 7 gusting 9 2.9 3.8 1.5
2017-Feb-23 22:00 270 9 gusting 11 2.6 3.8 1.6
2017-Feb-23 21:00 280 11 gusting 13 2.4 3.8 1.7
2017-Feb-23 20:00 280 11 gusting 13 2.5 3.9 1.9
2017-Feb-23 19:00 300 15 gusting 17 2.4 4.0 2.0
2017-Feb-23 18:00 290 15 gusting 17 2.4 4.0 1.9
2017-Feb-23 17:00 290 15 gusting 19 2.2 4.0 2.0
2017-Feb-23 16:00 290 17 gusting 21 2.0 4.0 2.1
2017-Feb-23 15:00 300 17 gusting 21 1.9 3.9 2.0
2017-Feb-23 14:00 300 17 gusting 21 1.9 4.1 2.1
2017-Feb-23 13:00 310 19 gusting 21 1.5 4.0 2.0
2017-Feb-23 12:00 320 19 gusting 23 1.3 3.9 2.3
2017-Feb-23 11:00 320 19 gusting 25 1.1 3.8 2.3
2017-Feb-23 10:00 320 21 gusting 23 1.0 3.7 2.2
2017-Feb-23 09:00 320 19 gusting 23 0.5 3.7 2.2
2017-Feb-23 08:00 320 19 gusting 23 0.4 3.7 2.3
2017-Feb-23 07:00 340 19 gusting 21 -0.0 3.8 2.6
2017-Feb-23 06:00 330 21 gusting 25 -0.2 3.8 2.7
2017-Feb-23 05:00 330 23 gusting 29 -0.4 3.8 2.4
2017-Feb-23 03:00 350 21 gusting 25 -0.1 3.9 2.5
2017-Feb-23 02:00 -0.4
2017-Feb-23 01:00 -0.0 4.0 2.5
2017-Feb-23 00:00 360 23 gusting 25 0.1 3.9 2.4
2017-Feb-22 23:00 360 21 gusting 27 0.1 3.9 2.4
2017-Feb-22 22:00 010 21 gusting 25 -0.1 3.9 2.3
2017-Feb-22 21:00 010 19 gusting 23 -0.0 3.9 2.5
2017-Feb-22 20:00 020 21 gusting 25 0.1 3.9 2.3
2017-Feb-22 19:00 020 19 gusting 23 0.3 3.9 2.3
2017-Feb-22 18:00 030 21 gusting 25 -0.0 3.9 2.2
2017-Feb-22 17:00 020 19 -0.1 3.9
2017-Feb-22 16:00 020 21 gusting 23 -0.3 3.9 2.2
2017-Feb-22 15:00 030 19 gusting 25 -0.2 3.9 2.3
2017-Feb-22 14:00 040 17 gusting 23 -0.3 3.9 2.4
2017-Feb-22 13:00 050 19 gusting 23 -0.3 3.8 2.5
2017-Feb-22 12:00 050 21 gusting 25 -0.4 3.8 2.4
2017-Feb-22 11:00 040 19 gusting 23 -0.4 3.8 2.4
2017-Feb-22 10:00 040 19 gusting 23 -0.5 3.8 2.5
2017-Feb-22 09:00 030 19 gusting 23 -0.0 3.8 2.5
2017-Feb-22 08:00 020 17 gusting 23 -0.1 3.8 2.4
2017-Feb-22 07:00 040 19 gusting 23 0.1 3.7 2.6
2017-Feb-22 05:00 040 19 gusting 23 0.3 3.7 2.5
2017-Feb-22 04:00 050 21 gusting 25 0.1 3.8 2.4
2017-Feb-22 03:00 030 21 gusting 25 0.1 3.8 2.5
2017-Feb-22 02:00 030 21 gusting 25 0.2 3.9 2.4